Weather History for Walnut Ridge, AR

Change the Weather History Date:

Saturday, March 2, 2013

  Actual Average Record
Temperature  
Mean Temperature 30 °F -  
Max Temperature 35 °F 50 °F 80 °F (2012)
Min Temperature 26 °F 34 °F 17 °F (2014)
Degree Days  
Heating Degree Days 34    
Moisture  
Dew Point 21 °F    
Average Humidity 66    
Maximum Humidity 86    
Minimum Humidity 48    
Precipitation  
Precipitation 0.00 in - - ()
Sea Level Pressure  
Sea Level Pressure 30.24 in    
Wind  
Wind Speed 12 mph (NW)    
Max Wind Speed 20 mph    
Max Gust Speed 24 mph    
Visibility 10 miles    
Events      
Averages and records for this station are not official NWS values.
T = Trace of Precipitation, MM = Missing Value Source: NWS Daily Summary

Daily Weather History Graph

Daily Weather History Graph

Search for Another Location

Airport:

Trip Planner

Search our weather history database for the weather conditions in past years. The results will help you decide how hot, cold, wet, or windy it might be!

Date:

Astronomy

Mar. 02, 2013 Rise Set
Actual Time 6:32 AM CST 5:59 PM CST
Civil Twilight 6:06 AM CST 6:25 PM CST
Nautical Twilight 5:36 AM CST 6:55 PM CST
Astronomical Twilight 5:07 AM CST 7:25 PM CST
Moon 11:27 PM CST (3/2) 9:11 AM CST (3/2)
Length of Visible Light 12h 18m
Length of Day
11h 27m
Waning Gibbous, 74% of the Moon is Illuminated
Mar 2
Waning Gibbous
Mar 4
Last Quarter
Mar 11
New
Mar 19
First Quarter
Mar 27
Full

Hourly Weather History & Observations

Time (CST) Temp. Windchill Dew Point Humidity Pressure Visibility Wind Dir Wind Speed Gust Speed Precip Events Conditions
12:15 AM 30.2 °F 21.9 °F 26.6 °F 86% 30.19 in 10.0 mi NW 9.2 mph - N/A   Clear
12:35 AM 32.0 °F 23.0 °F 26.6 °F 80% 30.19 in 10.0 mi NW 11.5 mph - N/A   Partly Cloudy
1:55 AM 30.2 °F 20.2 °F 23.0 °F 75% 30.20 in 10.0 mi NNW 12.7 mph - N/A   Scattered Clouds
2:15 AM 30.2 °F 19.8 °F 24.8 °F 80% 30.19 in 10.0 mi NNW 13.8 mph - N/A   Scattered Clouds
2:35 AM 30.2 °F 19.3 °F 21.2 °F 69% 30.19 in 10.0 mi NNW 15.0 mph - N/A   Clear
2:56 AM 28.4 °F 17.5 °F 21.2 °F 74% 30.19 in 10.0 mi NNW 13.8 mph - N/A   Clear
3:15 AM 28.4 °F 19.7 °F 21.2 °F 74% 30.19 in 10.0 mi NNW 9.2 mph - N/A   Clear
3:35 AM 28.4 °F 19.1 °F 21.2 °F 74% 30.19 in 10.0 mi NNW 10.4 mph - N/A   Clear
3:55 AM 28.4 °F 19.7 °F 21.2 °F 74% 30.18 in 10.0 mi NNW 9.2 mph - N/A   Partly Cloudy
4:15 AM 28.4 °F 20.4 °F 23.0 °F 80% 30.19 in 10.0 mi NNW 8.1 mph - N/A   Scattered Clouds
4:35 AM 28.4 °F 18.0 °F 21.2 °F 74% 30.19 in 10.0 mi NNW 12.7 mph - N/A   Overcast
4:55 AM 28.4 °F 18.0 °F 21.2 °F 74% 30.20 in 10.0 mi NW 12.7 mph - N/A   Overcast
5:15 AM 28.4 °F 18.5 °F 21.2 °F 74% 30.20 in 10.0 mi NNW 11.5 mph - N/A   Overcast
6:35 AM 28.4 °F 19.1 °F 21.2 °F 74% 30.22 in 10.0 mi NNW 10.4 mph - N/A   Overcast
6:55 AM 28.4 °F 17.5 °F 21.2 °F 74% 30.23 in 10.0 mi NNW 13.8 mph 18.4 mph N/A   Overcast
7:35 AM 28.4 °F 16.2 °F 21.2 °F 74% 30.24 in 10.0 mi NNW 17.3 mph - N/A   Mostly Cloudy
7:55 AM 28.4 °F 16.6 °F 21.2 °F 74% 30.24 in 10.0 mi NW 16.1 mph - N/A   Partly Cloudy
8:16 AM 30.2 °F 17.8 °F 21.2 °F 69% 30.25 in 10.0 mi NNW 19.6 mph - N/A   Clear
9:15 AM 33.8 °F 22.8 °F 21.2 °F 60% 30.26 in 10.0 mi NNW 18.4 mph 24.2 mph N/A   Clear
9:35 AM 33.8 °F 23.5 °F 21.2 °F 60% 30.26 in 10.0 mi NW 16.1 mph - N/A   Scattered Clouds
9:55 AM 32.0 °F 21.6 °F 21.2 °F 64% 30.27 in 10.0 mi NW 15.0 mph - N/A   Overcast
10:15 AM 32.0 °F 21.2 °F 19.4 °F 60% 30.27 in 10.0 mi NW 16.1 mph - N/A   Overcast
10:35 AM 33.8 °F 23.2 °F 21.2 °F 60% 30.27 in 10.0 mi NNW 17.3 mph - N/A   Overcast
10:55 AM 33.8 °F 24.8 °F 19.4 °F 56% 30.27 in 10.0 mi NNW 12.7 mph - N/A   Overcast
11:15 AM 33.8 °F 23.5 °F 21.2 °F 60% 30.27 in 10.0 mi NW 16.1 mph 20.7 mph N/A   Overcast
11:35 AM 33.8 °F 23.9 °F 21.2 °F 60% 30.27 in 10.0 mi NNW 15.0 mph - N/A   Overcast
11:55 AM 33.8 °F 23.2 °F 21.2 °F 60% 30.27 in 10.0 mi NNW 17.3 mph - N/A   Overcast
12:35 PM 33.8 °F 23.5 °F 19.4 °F 56% 30.26 in 10.0 mi NNW 16.1 mph - N/A   Overcast
12:56 PM 33.8 °F 24.3 °F 19.4 °F 56% 30.25 in 10.0 mi NW 13.8 mph - N/A   Overcast
1:16 PM 33.8 °F 24.3 °F 19.4 °F 56% 30.25 in 10.0 mi NNW 13.8 mph - N/A   Overcast
1:35 PM 33.8 °F 24.8 °F 19.4 °F 56% 30.24 in 10.0 mi NNW 12.7 mph - N/A   Overcast
1:55 PM 33.8 °F 24.3 °F 19.4 °F 56% 30.24 in 10.0 mi NW 13.8 mph - N/A   Overcast
2:15 PM 33.8 °F 23.9 °F 19.4 °F 56% 30.24 in 10.0 mi NNW 15.0 mph - N/A   Overcast
2:35 PM 33.8 °F 24.3 °F 19.4 °F 56% 30.24 in 10.0 mi NNW 13.8 mph - N/A   Overcast
2:55 PM 33.8 °F 23.9 °F 17.6 °F 52% 30.24 in 10.0 mi NNW 15.0 mph 18.4 mph N/A   Overcast
3:15 PM 33.8 °F 25.8 °F 19.4 °F 56% 30.24 in 10.0 mi North 10.4 mph - N/A   Overcast
3:55 PM 33.8 °F 25.8 °F 19.4 °F 56% 30.23 in 10.0 mi NNW 10.4 mph - N/A   Overcast
4:15 PM 33.8 °F 27.7 °F 19.4 °F 56% 30.24 in 10.0 mi NW 6.9 mph - N/A   Mostly Cloudy
4:35 PM 35.6 °F 31.7 °F 19.4 °F 52% 30.23 in 10.0 mi NNW 4.6 mph - N/A   Mostly Cloudy
4:55 PM 35.6 °F 28.6 °F 17.6 °F 48% 30.24 in 10.0 mi WNW 9.2 mph - N/A   Overcast
5:55 PM 33.8 °F 27.7 °F 19.4 °F 56% 30.24 in 10.0 mi WNW 6.9 mph - N/A   Overcast
6:35 PM 32.0 °F 24.2 °F 19.4 °F 60% 30.25 in 10.0 mi NW 9.2 mph - N/A   Partly Cloudy
7:15 PM 28.4 °F 20.4 °F 19.4 °F 69% 30.26 in 10.0 mi NW 8.1 mph - N/A   Clear
8:55 PM 26.6 °F 21.2 °F 21.2 °F 80% 30.26 in 10.0 mi NNW 4.6 mph - N/A   Clear
9:55 PM 28.4 °F 23.3 °F 21.2 °F 74% 30.26 in 10.0 mi NNW 4.6 mph - N/A   Clear
10:15 PM 26.6 °F 21.2 °F 19.4 °F 74% 30.26 in 10.0 mi NNW 4.6 mph - N/A   Clear
10:35 PM 26.6 °F 20.0 °F 19.4 °F 74% 30.27 in 10.0 mi NW 5.8 mph - N/A   Clear
10:55 PM 26.6 °F 22.6 °F 19.4 °F 74% 30.26 in 10.0 mi NW 3.5 mph - N/A   Clear
11:15 PM 26.6 °F 21.2 °F 19.4 °F 74% 30.26 in 10.0 mi NW 4.6 mph - N/A   Clear
11:35 PM 26.6 °F 21.2 °F 19.4 °F 74% 30.26 in 10.0 mi WNW 4.6 mph - N/A   Clear
11:55 PM 26.6 °F 21.2 °F 19.4 °F 74% 30.26 in 10.0 mi WNW 4.6 mph - N/A   Clear